Theta_e
317 320 321 321 320 322 325 326 327 325 326 322 321 320 319 318 317 317 317 312 305 299 297 297 296 295 294 294 293 292 292 291 291 291 291 290 290 290 290 290 290 290 290
312 312 311 311 310 310 313 324 323 323 323 322 321 320 319 317 317 316 307 299 297 297 296 295 295 294 294 293 292 292 291 291 290 290 290 290 290 290 290 290 290 290 290
311 310 310 310 309 309 314 322 321 321 322 321 319 316 316 315 309 301 297 297 297 296 295 295 294 293 292 292 291 291 291 290 290 290 289 289 289 289 289 289 289 290 290
311 311 310 310 310 311 322 319 320 321 321 319 316 314 310 303 298 297 297 297 296 295 294 293 292 292 291 291 291 290 290 290 289 289 289 289 289 289 289 289 289 289 289
312 312 312 314 317 318 318 320 320 319 319 315 312 306 300 297 297 298 298 296 295 294 293 292 291 291 291 291 290 290 290 289 289 288 288 288 288 288 288 288 289 289 288
313 313 315 317 320 318 318 318 318 318 313 309 302 298 297 297 298 297 296 294 294 293 292 291 291 290 290 290 290 290 289 289 288 288 287 287 287 287 287 287 287 287 287
313 313 314 317 318 317 317 317 317 311 305 300 298 297 297 297 297 296 294 293 292 291 291 290 290 289 289 289 289 289 289 288 287 287 286 286 286 286 286 287 287 286 286
313 313 314 315 316 316 316 315 308 303 299 297 297 297 297 296 295 294 292 292 291 290 290 289 289 289 288 289 289 288 288 287 287 286 286 285 285 285 285 285 286 286 286
312 313 313 314 315 315 311 306 301 298 297 297 297 296 296 295 293 292 291 291 290 289 289 289 288 288 288 288 288 288 287 286 286 285 284 284 286 286 286 286 286 285 286
310 311 311 310 309 307 304 301 298 297 296 296 296 295 294 292 292 291 291 290 289 289 289 288 288 288 288 288 287 287 286 286 285 285 285 284 285 285 285 285 284 283 283
308 308 307 306 305 302 300 298 296 296 296 295 294 293 292 293 291 291 290 289 288 288 288 288 288 288 288 287 287 286 285 285 285 285 284 284 284 285 285 285 284 284 283
307 306 305 303 301 299 297 296 295 295 295 294 293 293 297 291 296 290 289 288 288 288 288 288 287 287 287 286 286 285 285 285 285 285 285 285 284 284 284 284 284 284 284
306 305 303 301 299 297 296 295 295 295 294 293 294 298 291 296 293 289 288 288 288 288 287 287 287 287 286 286 285 285 284 284 284 285 284 284 284 283 283 284 283 283 284
305 304 302 300 298 296 296 295 295 294 292 296 298 294 296 298 289 288 288 288 287 287 287 287 287 286 286 285 285 284 284 284 284 284 284 283 283 283 283 283 283 283 283
303 302 301 299 297 296 295 295 294 292 299 300 294 294 298 292 289 288 287 287 287 287 287 286 286 286 285 284 284 284 283 283 283 283 283 282 282 282 282 282 282 282 282
302 301 300 299 297 296 295 294 293 298 299 291 294 297 296 288 287 287 287 287 286 286 286 286 285 285 284 284 284 283 283 283 283 282 282 281 281 281 281 281 281 281 281
302 301 300 299 297 295 295 294 300 299 292 296 292 297 291 288 287 287 286 286 286 286 286 285 285 285 284 284 283 283 283 282 282 281 281 280 280 280 280 280 280 280 280
301 301 301 301 299 297 297 298 296 294 293 291 297 296 289 288 287 286 286 286 286 286 285 285 285 284 284 283 283 283 282 281 281 281 280 279 279 278 279 278 279 278 278
299 299 298 297 296 296 295 294 292 291 291 291 291 290 291 288 287 286 286 286 286 285 285 284 284 284 283 283 282 282 281 281 280 280 279 278 277 277 277 277 277 277 277
297 296 296 295 295 294 294 293 291 291 290 290 289 290 289 287 287 287 286 285 285 285 284 284 284 283 283 282 281 281 280 280 279 278 278 277 276 276 276 276 276 275 275
295 295 294 294 294 293 293 292 291 290 290 290 289 288 287 286 286 286 286 285 285 284 283 283 283 282 281 281 280 280 279 278 278 277 277 276 276 275 275 275 274 274 274
294 294 293 293 293 293 292 291 291 290 289 289 288 288 286 286 286 286 284 284 283 283 282 282 282 281 280 280 279 278 278 277 276 276 275 275 275 274 274 274 273 273 273
295 294 293 292 292 292 291 291 290 289 288 288 288 287 285 285 285 283 283 282 282 282 281 281 280 280 279 278 278 277 277 276 275 275 275 274 274 274 273 273 272 272 272
292 292 292 291 290 289 289 289 289 288 287 287 287 286 285 284 283 283 282 281 281 281 280 280 279 278 278 277 277 277 276 275 275 274 274 274 274 273 273 272 272 272 272
290 290 290 290 290 289 288 288 287 287 287 286 285 284 283 283 282 282 281 280 280 280 278 278 277 277 276 277 276 275 275 274 274 273 272 272 272 273 272 272 272 271 271
286 287 288 288 288 287 287 286 285 284 283 283 282 282 281 280 280 279 280 280 279 278 278 277 276 276 276 275 275 274 273 273 272 271 271 271 271 271 270 270 270 270 270
Wind_Speed
34 34 33 33 33 32 31 31 29 29 27 24 21 20 20 18 17 16 15 12 9 7 6 5 6 7 8 11 13 15 17 19 20 22 25 28 30 33 35 37 38 39 39
32 32 33 33 34 34 33 30 29 27 27 27 24 23 22 19 18 15 13 10 8 7 6 6 7 8 10 12 12 13 15 18 21 24 25 28 31 33 36 38 39 40 40
29 30 29 29 30 31 31 30 28 29 28 25 24 21 22 19 18 16 13 10 8 6 6 7 8 9 10 10 11 12 14 16 19 23 26 28 31 33 37 38 40 40 39
24 25 23 24 25 27 30 30 31 31 28 25 24 23 22 20 18 15 11 8 7 7 7 8 8 8 8 8 9 12 14 17 20 23 26 28 31 33 34 38 42 40 41
24 23 22 22 24 29 30 32 31 29 25 26 26 25 23 19 16 12 9 8 8 7 7 7 7 7 6 7 9 12 15 19 21 24 26 28 29 32 34 36 38 42 42
24 24 23 25 28 31 32 32 31 29 28 27 26 23 21 18 14 11 9 9 8 7 7 7 6 5 6 8 11 15 17 19 21 23 23 24 25 28 30 33 35 38 42
25 25 27 28 31 33 32 31 31 31 30 28 25 23 19 16 13 10 9 9 7 7 7 6 5 6 8 10 13 17 18 19 21 21 21 20 24 25 29 31 31 31 32
28 29 29 31 32 33 32 32 32 31 29 26 24 21 18 15 12 10 9 8 9 8 7 6 6 7 9 12 15 16 17 18 20 20 20 20 21 23 23 26 27 29 30
32 31 32 32 34 34 34 34 32 30 28 25 22 19 17 14 11 9 9 10 10 9 9 8 7 8 10 11 13 15 16 18 19 21 21 20 19 20 21 23 23 25 29
35 34 33 33 33 34 34 33 31 29 25 24 22 19 16 13 9 9 12 12 12 11 10 8 8 9 11 12 14 15 17 18 20 21 22 22 19 19 19 19 21 21 22
34 34 35 35 35 34 33 32 30 28 27 24 22 18 15 10 11 13 15 14 13 11 10 10 10 11 13 14 15 14 17 19 20 21 22 24 21 21 20 19 18 19 22
35 37 37 36 36 35 33 32 30 29 27 24 21 17 13 15 14 19 16 15 14 13 12 11 12 12 13 14 15 15 15 17 20 23 25 26 25 22 22 21 20 20 20
37 39 39 37 36 35 33 32 32 30 28 24 18 14 18 13 22 19 17 16 16 15 14 13 13 14 15 14 15 15 15 17 20 23 26 27 27 26 24 23 22 21 20
39 40 39 38 37 35 34 34 33 31 28 20 17 23 14 23 25 22 20 19 19 18 16 15 16 16 16 17 17 17 17 18 20 22 24 26 26 26 25 24 27 24 22
38 38 38 38 37 37 36 35 33 27 20 20 26 18 21 28 25 22 22 21 21 21 19 18 18 18 18 18 18 19 18 19 20 21 23 25 25 25 24 23 24 24 22
35 37 37 37 38 38 37 35 31 25 28 30 24 24 29 28 26 26 25 23 25 24 22 21 21 20 20 21 21 21 20 21 22 23 23 24 25 25 24 22 22 23 22
30 33 36 37 36 35 35 35 35 33 32 32 29 26 30 27 27 27 27 26 30 26 25 24 23 23 22 23 23 23 23 23 23 23 24 24 24 24 23 23 22 22 21
27 30 32 34 37 39 40 39 35 37 37 32 25 32 31 30 29 29 28 32 31 28 27 26 25 25 25 24 24 24 23 23 24 24 23 22 22 23 22 21 20 21 20
27 30 33 35 37 38 38 37 36 35 35 33 32 30 31 30 29 29 31 33 29 28 28 27 27 26 26 25 25 24 23 23 24 23 22 21 20 20 20 21 21 19 19
22 24 27 30 33 34 35 36 37 37 37 36 36 33 32 32 32 31 31 30 28 28 29 28 28 28 27 26 25 24 23 23 23 23 22 21 20 20 20 20 20 21 19
18 22 25 28 31 33 35 37 37 38 38 37 36 33 32 34 32 32 33 33 32 31 31 30 29 29 28 26 25 24 24 22 22 23 21 20 20 19 20 21 21 21 20
17 20 24 27 30 33 35 36 37 38 38 38 37 35 36 37 36 36 37 34 33 34 32 32 31 29 27 26 25 25 23 22 21 23 22 21 20 20 20 21 21 21 20
17 20 23 27 30 32 34 36 37 38 38 38 38 37 37 40 41 38 36 33 35 36 33 33 32 29 27 26 26 26 24 21 21 24 23 22 21 21 21 21 21 21 21
19 21 23 26 29 32 34 36 37 38 38 39 38 39 41 41 40 38 38 35 36 35 34 34 32 29 26 26 26 26 26 24 23 23 24 23 21 22 23 23 23 22 23
19 20 21 24 26 29 32 35 38 39 40 40 39 40 40 40 40 40 38 35 35 35 34 32 31 30 28 26 25 25 26 26 25 24 25 25 24 23 24 24 23 23 22
20 22 23 24 26 28 31 33 35 35 36 36 37 37 38 37 37 36 36 36 34 33 33 33 32 30 28 26 26 27 26 25 26 26 27 27 26 25 25 24 23 23 23
Wind_Direction
224 225 230 233 235 235 230 225 220 227 224 226 229 227 231 232 227 225 228 218 213 221 233 254 273 292 313 321 325 326 328 330 333 340 344 345 348 347 348 349 351 350 351
224 227 231 234 235 232 226 215 214 215 217 222 225 224 230 217 219 215 206 201 204 222 241 264 291 309 316 322 328 331 336 340 342 343 346 347 348 347 347 346 348 348 349
229 231 231 228 224 219 209 203 205 208 209 211 220 217 205 202 198 193 192 203 216 234 265 285 299 309 321 330 336 343 344 344 342 342 344 346 347 348 345 345 346 346 349
225 221 215 211 206 201 195 199 202 201 207 210 203 197 193 188 187 191 195 214 236 257 276 293 305 315 325 336 345 346 343 341 341 341 342 343 345 345 342 341 342 345 346
214 209 202 198 193 191 195 197 195 204 205 198 194 188 186 185 189 196 211 229 246 264 280 294 301 307 321 338 339 337 339 340 339 338 340 340 341 340 341 340 340 340 343
212 206 199 195 191 193 195 197 198 198 193 192 188 188 186 190 194 205 221 238 252 270 284 293 289 299 313 324 329 332 334 337 337 336 335 334 336 337 335 335 337 339 340
210 207 203 199 196 195 196 197 196 193 190 188 187 189 192 197 202 213 227 240 263 276 279 270 274 297 308 320 329 330 335 337 336 335 329 332 330 331 328 329 332 332 332
210 207 205 202 199 197 197 195 193 192 191 191 191 192 196 203 214 221 238 257 265 264 255 250 267 291 315 324 329 331 335 338 336 334 330 329 326 325 321 320 327 324 327
210 207 204 201 198 196 194 193 193 193 194 195 194 198 203 211 216 227 254 261 255 246 237 244 270 301 314 319 326 329 334 335 335 335 335 331 331 330 326 320 322 322 323
211 207 203 200 199 199 198 196 197 196 197 198 200 201 207 212 228 246 256 252 246 237 241 258 278 297 309 321 325 327 333 334 332 334 331 332 328 323 319 316 316 315 318
213 207 205 203 203 202 201 201 199 198 198 201 204 208 212 232 236 254 247 244 241 245 257 276 294 305 312 318 319 323 327 331 331 328 327 327 328 318 314 311 310 305 306
213 209 206 204 203 202 203 201 200 201 203 204 207 211 235 230 262 247 242 241 247 256 264 277 290 300 306 308 311 319 322 324 324 327 329 328 327 320 312 308 308 304 302
213 210 207 205 205 204 204 205 205 204 206 207 214 233 229 257 251 242 241 243 248 253 260 272 283 288 296 302 306 309 314 317 321 324 325 325 322 319 313 306 303 302 297
215 211 208 207 206 207 207 209 210 209 206 216 231 231 242 256 242 241 243 245 248 254 261 269 278 286 291 297 303 306 308 311 315 317 320 319 316 312 307 303 300 302 297
214 212 209 209 210 210 210 212 211 207 231 243 229 232 254 248 244 243 246 248 253 259 265 270 276 284 288 292 295 298 301 305 308 312 314 313 310 309 308 304 299 297 293
214 212 212 213 213 213 214 210 208 237 235 225 231 245 251 244 240 245 249 251 256 262 267 272 278 282 286 291 295 297 299 304 308 312 312 311 309 308 307 306 302 298 293
219 219 218 219 219 218 219 215 245 231 223 233 227 245 247 248 246 249 252 255 259 264 267 271 276 282 287 291 294 297 300 303 306 309 311 310 307 306 306 305 303 298 294
220 223 226 228 227 225 227 234 227 225 231 225 246 248 246 247 248 250 253 256 261 265 267 272 278 282 286 290 292 292 295 300 303 306 306 305 304 303 305 302 301 297 296
234 234 233 234 232 231 233 233 232 233 232 236 239 240 249 250 252 253 254 260 263 265 269 271 275 280 283 285 287 289 294 297 299 302 304 304 302 302 302 301 300 296 294
244 244 244 242 239 238 237 235 235 236 237 238 240 244 249 251 253 257 260 264 265 268 269 272 274 276 278 280 282 285 288 294 298 300 300 299 299 301 300 300 297 295 292
253 252 248 244 242 241 240 240 242 243 244 246 248 250 252 253 257 261 262 263 266 267 267 269 270 272 274 276 278 282 286 290 292 291 292 292 294 296 296 296 294 292 293
259 258 257 255 254 251 250 249 249 250 251 252 253 253 252 253 254 257 259 262 264 264 263 266 267 268 269 270 274 279 282 287 287 286 289 290 291 293 293 293 292 292 294
267 260 258 259 259 258 257 257 257 257 258 259 259 257 256 257 259 259 260 261 261 262 263 265 266 266 266 269 275 278 282 284 281 281 284 284 286 288 288 288 289 290 291
284 276 268 263 261 260 260 261 261 261 261 261 260 261 261 260 261 264 263 260 259 261 263 264 266 265 263 269 273 277 281 281 277 278 281 283 284 285 286 287 287 287 287
295 287 280 274 268 266 265 265 266 267 268 268 267 265 264 264 264 263 262 260 262 263 262 263 263 264 266 270 270 273 275 276 278 278 279 281 282 281 282 283 284 284 284
300 296 290 282 275 271 268 266 266 266 266 267 267 267 266 265 264 264 263 263 262 260 261 260 259 262 266 268 272 272 272 275 277 277 278 278 279 280 278 279 280 281 282